[[{"header":{"parameterUnit":"m.s-1","parameterCategory":1,"la1":30.2991,"la2":30.254,"lo1":-89.0895,"lo2":-89.0444,"dy":0.0017,"dx":0.0017,"nx":28,"ny":28,"refTime":"2023-09-04T09:00:00:Z","depth":0,"parameterNumber":2,"parameterNumberName":"U-component_of_WINDS"},"data":[0,0,0,0,0,0,0,0,0,0,0,0,0,0,0,0,0,0,0,0,0,0,0,0,0,0,0,0,0,0,0,0,0,0,0,0,0,0,0,0,0,0,0,0,0,0,0,0,0,0,0,0,0,0,0,0,0,0,-3.4372,-3.4374,0,-3.4497,-3.4498,-3.45,-3.4497,-3.4496,-3.4494,-3.4492,-3.4627,-3.4632,-3.4637,0,0,0,0,0,0,0,0,0,0,0,0,0,-3.4142,-3.4146,-3.4372,-3.4374,-3.4375,-3.4496,-3.4498,-3.45,-3.4498,-3.4496,-3.4494,-3.4492,-3.4625,-3.4631,-3.4637,0,0,0,0,0,0,0,0,0,0,0,0,0,-3.4252,-3.4148,-3.4372,-3.4389,-3.4391,-3.4496,-3.4498,-3.45,-3.4498,-3.4496,-3.4493,-3.4491,-3.4623,-3.463,-3.4638,-3.4736,0,0,-3.4662,-3.4665,0,0,0,0,0,0,0,0,-3.4246,-3.4261,-3.4385,-3.4388,-3.4391,-3.4479,-3.4466,-3.458,-3.4499,-3.4458,-3.4492,-3.4489,-3.458,-3.4591,-3.462,-3.4743,-3.4748,-3.4662,-3.4667,-3.467,-3.4672,0,0,0,0,0,0,0,-3.4238,-3.4255,-3.4422,-3.4387,-3.439,-3.4393,-3.4406,-3.4488,-3.4532,-3.4461,-3.4461,-3.4476,-3.4581,-3.4613,-3.4623,-3.475,-3.4662,-3.4669,-3.4674,-3.4677,-3.4964,-3.4967,0,0,0,0,0,0,-3.4226,-3.4249,-3.4418,-3.4425,-3.431,-3.4399,-3.4414,-3.4453,-3.4531,-3.454,-3.4478,-3.4475,-3.4601,-3.4614,-3.4628,-3.4749,-3.467,-3.4677,-3.4682,-3.4961,-3.4964,-3.4968,0,0,0,0,0,0,-3.4221,-3.4241,-3.4413,-3.4337,-3.4359,-3.4406,-3.4451,-3.4457,-3.4488,-3.4543,-3.4552,-3.4501,-3.4599,-3.4617,-3.471,-3.4754,-3.4681,-3.4688,-3.4957,-3.4962,-3.4966,-3.4992,0,0,0,0,0,0,-3.4214,-3.4239,-3.4274,-3.4338,-3.4363,-3.4489,-3.4453,-3.4461,-3.4501,-3.4499,-3.4567,-3.4576,-3.4599,-3.4698,-3.4717,-3.4763,-3.4694,-3.4953,-3.4959,-3.4965,-3.4987,-3.4997,-3.5005,0,0,0,0,0,-3.4206,-3.4278,-3.4276,-3.4297,-3.4408,-3.4492,-3.4507,-3.4528,-3.4504,-3.4542,-3.4578,-3.4574,-3.4747,-3.4708,-3.4729,-3.4778,-3.4951,-3.4958,-3.4964,-3.4983,-3.4995,-3.5005,0,0,0,0,0,0,-3.422,-3.4286,-3.4285,-3.4379,-3.443,-3.4491,-3.4539,-3.454,-3.46,-3.4596,-3.4623,-3.4639,-3.4731,-3.4765,-3.472,-3.4879,-3.4846,-3.4857,-3.4853,-3.4865,-3.4873,-3.4863,-3.47,0,0,0,0,0,-3.4233,-3.4293,-3.4349,-3.4427,-3.4452,-3.4491,-3.4529,-3.4542,-3.4596,-3.4618,-3.4661,-3.4716,-3.4783,-3.4826,-3.4891,-3.4994,-3.501,-3.5038,-3.5047,-3.5054,-3.5063,-3.5123,-3.5136,-3.499,-3.499,-3.499,0,0,-3.4262,-3.4306,-3.4343,-3.4431,-3.4471,-3.4536,-3.4509,-3.4578,-3.4627,-3.4629,-3.4718,-3.4753,-3.4817,-3.4915,-3.4961,-3.4946,-3.5108,-3.5063,-3.5068,-3.5073,-3.5131,-3.5145,-3.5157,-3.4994,-3.4994,-3.4993,0,0,-3.4348,-3.4386,-3.4456,-3.4497,-3.4559,-3.4585,-3.4602,-3.4665,-3.4687,-3.4777,-3.4781,-3.4842,-3.4956,-3.5001,-3.504,-3.5148,-3.5147,-3.5168,-3.5213,-3.5271,-3.5283,-3.5293,-3.5332,-3.5346,-3.5178,-3.5178,-3.5178,0,-3.4376,-3.447,-3.4492,-3.4561,-3.4601,-3.4606,-3.4678,-3.4719,-3.4799,-3.4828,-3.481,-3.4955,-3.4998,-3.5109,-3.5135,-3.5166,-3.5188,-3.5159,-3.5279,-3.5289,-3.5299,-3.5337,-3.5352,-3.518,-3.518,-3.5179,-3.5179,0,-3.4503,-3.4569,-3.4618,-3.4694,-3.474,-3.4811,-3.4846,-3.4891,-3.4902,-3.4931,-3.5025,-3.5078,-3.5154,-3.5182,-3.5193,-3.5295,-3.5284,-3.5272,-3.5239,-3.5315,-3.5351,-3.5366,-3.5183,-3.5182,-3.5181,-3.5181,0,0,-3.4597,-3.4686,-3.4703,-3.4739,-3.481,-3.4862,-3.4936,-3.5008,-3.5047,-3.5104,-3.5168,-3.5266,-3.5256,-3.53,-3.5317,-3.5368,-3.5452,-3.5351,-3.5353,-3.5367,-3.557,-3.5577,-3.5593,-3.5453,-3.5456,-3.5458,-3.5564,0,-3.4689,-3.4814,-3.4838,-3.4949,-3.5012,-3.502,-3.5084,-3.5136,-3.5167,-3.5227,-3.5263,-3.5332,-3.5313,-3.534,-3.5391,-3.543,-3.5493,-3.5424,-3.5514,-3.5517,-3.5496,-3.5612,-3.5619,-3.5716,-3.5578,-3.5581,-3.5583,0,-3.4812,-3.4871,-3.4987,-3.5052,-3.5079,-3.5136,-3.5206,-3.5263,-3.5324,-3.5344,-3.5394,-3.5407,-3.5487,-3.5452,-3.5564,-3.5516,-3.5556,-3.5582,-3.5586,-3.5594,-3.5553,-3.5622,-3.5747,-3.5762,-3.5605,-3.5603,-3.5602,0,-3.4869,-3.4978,-3.5062,-3.5092,-3.5169,-3.5209,-3.5244,-3.5303,-3.5346,-3.541,-3.5438,-3.5511,-3.5551,-3.5608,-3.5642,-3.5613,-3.5752,-3.5719,-3.5772,-3.5771,-3.5799,-3.5796,-3.5931,-3.5827,-3.5826,-3.5826,-3.5826,0,-3.4969,-3.504,-3.5088,-3.5139,-3.5221,-3.525,-3.5331,-3.5366,-3.5419,-3.548,-3.5493,-3.5551,-3.5592,-3.5657,-3.5684,-3.5774,-3.5792,-3.5812,-3.5818,-3.581,-3.5807,-3.5834,-3.5828,-3.583,-3.5829,-3.5828,-3.5828,0,-3.5044,-3.5079,-3.5171,-3.5238,-3.5256,-3.5313,-3.5372,-3.5424,-3.5457,-3.5534,-3.5554,-3.5606,-3.5683,-3.5723,-3.582,-3.5839,-3.594,-3.5943,-3.5918,-3.592,-3.597,-3.5965,-3.6126,-3.6149,-3.603,-3.6031,-3.6032,0,-3.5104,-3.5159,-3.5231,-3.5272,-3.5307,-3.5373,-3.5417,-3.545,-3.5496,-3.5572,-3.5617,-3.5694,-3.5757,-3.5882,-3.593,-3.6005,-3.601,-3.6061,-3.6021,-3.6012,-3.601,-3.6006,-3.6012,-3.6068,-3.6069,-3.607,-3.607,0,-3.5208,-3.5223,-3.5285,-3.5354,-3.5406,-3.5463,-3.5519,-3.5553,-3.5595,-3.5647,-3.5725,-3.5775,-3.5874,-3.5952,-3.6032,-3.6071,-3.6079,-3.6083,-3.6099,-3.609,-3.6074,-3.6084,-3.5936,-3.6079,-3.6078,-3.6077,-3.6077,-3.6076,-3.5278,-3.5327,-3.5386,-3.5456,-3.5501,-3.5554,-3.5607,-3.5646,-3.5711,-3.5792,-3.5809,-3.5893,-3.5957,-3.6064,-3.6107,-3.6175,-3.6164,-3.6188,-3.6194,-3.6198,-3.6201,-3.6064,-3.619,-3.619,-3.619,-3.619,-3.619,0,-3.5382,-3.5421,-3.5484,-3.5562,-3.5617,-3.5619,-3.5682,-3.5729,-3.5801,-3.586,-3.5922,-3.6014,-3.6091,-3.6146,-3.6225,-3.6269,-3.6275,-3.6289,-3.6285,-3.6295,-3.6206,-3.6183,-3.6283,-3.6283,-3.6283,-3.6283,-3.6283,-3.6283,-3.5442,-3.5526,-3.555,-3.5658,-3.5698,-3.5777,-3.5814,-3.5864,-3.5911,-3.6011,-3.6074,-3.611,-3.6168,-3.6252,-3.6324,-3.6339,-3.6367,-3.6381,-3.6396,-3.6311,-3.6301,-3.6291,-3.6271,-3.6387,-3.6387,-3.6479,-3.648,-3.6481]},{"header":{"parameterUnit":"m.s-1","parameterCategory":1,"la1":30.2991,"la2":30.254,"lo1":-89.0895,"lo2":-89.0444,"dy":0.0017,"dx":0.0017,"nx":28,"ny":28,"refTime":"2023-09-04T09:00:00:Z","depth":0,"parameterNumber":3,"parameterNumberName":"V-component_of_WINDS"},"data":[0,0,0,0,0,0,0,0,0,0,0,0,0,0,0,0,0,0,0,0,0,0,0,0,0,0,0,0,0,0,0,0,0,0,0,0,0,0,0,0,0,0,0,0,0,0,0,0,0,0,0,0,0,0,0,0,0,0,2.6233,2.6233,0,2.6284,2.6284,2.6285,2.628,2.6279,2.6278,2.6278,2.6333,2.6335,2.6337,0,0,0,0,0,0,0,0,0,0,0,0,0,2.6138,2.614,2.6233,2.6233,2.6234,2.6284,2.6284,2.6285,2.628,2.6279,2.6278,2.6277,2.6332,2.6335,2.6337,0,0,0,0,0,0,0,0,0,0,0,0,0,2.6183,2.614,2.6233,2.6238,2.6239,2.6283,2.6284,2.6285,2.628,2.6279,2.6278,2.6277,2.6331,2.6334,2.6338,2.6382,0,0,2.6348,2.6349,0,0,0,0,0,0,0,0,2.618,2.6186,2.6236,2.6237,2.6238,2.6274,2.6271,2.6318,2.6281,2.6265,2.6278,2.6276,2.6315,2.6319,2.6331,2.6385,2.6387,2.6348,2.635,2.6352,2.6353,0,0,0,0,0,0,0,2.6177,2.6184,2.6253,2.6237,2.6238,2.6239,2.6244,2.628,2.6296,2.6266,2.6266,2.6272,2.6315,2.6328,2.6333,2.6388,2.6348,2.6351,2.6353,2.6354,2.6485,2.6486,0,0,0,0,0,0,2.6172,2.6182,2.6251,2.6255,2.6206,2.6242,2.6248,2.6264,2.6295,2.6299,2.6273,2.6271,2.6323,2.6329,2.6335,2.6391,2.6352,2.6355,2.6357,2.6483,2.6485,2.6487,0,0,0,0,0,0,2.617,2.6179,2.6249,2.6218,2.6227,2.6245,2.6263,2.6266,2.6279,2.63,2.6304,2.6283,2.6322,2.633,2.6371,2.6392,2.6356,2.6359,2.6482,2.6484,2.6486,2.6502,0,0,0,0,0,0,2.6168,2.6178,2.6193,2.6218,2.6229,2.6283,2.6265,2.6267,2.6284,2.6283,2.6311,2.6314,2.6322,2.6366,2.6374,2.6396,2.6362,2.648,2.6483,2.6485,2.6499,2.6504,2.6508,0,0,0,0,0,2.6164,2.6195,2.6194,2.6202,2.6248,2.6284,2.629,2.6298,2.6286,2.6303,2.6317,2.6313,2.6389,2.637,2.638,2.6403,2.6478,2.6482,2.6485,2.6497,2.6503,2.6508,0,0,0,0,0,0,2.6172,2.6198,2.6197,2.6237,2.6258,2.6283,2.6304,2.6303,2.6329,2.6327,2.6336,2.6343,2.6385,2.6398,2.6377,2.645,2.6432,2.6438,2.6439,2.6444,2.6449,2.6444,2.6365,0,0,0,0,0,2.6178,2.6204,2.6226,2.626,2.6271,2.6286,2.6302,2.6306,2.6329,2.6338,2.6355,2.6379,2.6409,2.6427,2.6456,2.6502,2.651,2.6523,2.6528,2.6531,2.6535,2.6564,2.6571,2.6498,2.6498,2.6497,0,0,2.6191,2.6209,2.6225,2.6262,2.6279,2.6307,2.6293,2.6323,2.6345,2.6343,2.6382,2.6397,2.6424,2.6469,2.649,2.6482,2.6558,2.6536,2.6538,2.654,2.6568,2.6575,2.6582,2.65,2.6499,2.6499,0,0,2.623,2.6245,2.6276,2.6294,2.632,2.6331,2.6338,2.6364,2.6373,2.6414,2.6414,2.6442,2.6491,2.6512,2.6528,2.658,2.6579,2.659,2.6612,2.664,2.6646,2.6651,2.6671,2.6678,2.6594,2.6594,2.6594,0,2.6243,2.6284,2.6292,2.6323,2.634,2.6341,2.6373,2.6391,2.6425,2.6439,2.6429,2.6494,2.6512,2.6563,2.6577,2.659,2.6601,2.6585,2.6645,2.665,2.6655,2.6674,2.6681,2.6595,2.6595,2.6595,2.6595,0,2.63,2.6329,2.6351,2.6384,2.6405,2.6436,2.6451,2.6472,2.6476,2.6488,2.6532,2.6554,2.6588,2.6601,2.6605,2.6654,2.6649,2.6642,2.6625,2.6663,2.6681,2.6688,2.6597,2.6596,2.6596,2.6596,0,0,2.6341,2.6381,2.6389,2.6406,2.6437,2.646,2.6494,2.6527,2.6545,2.6571,2.66,2.6645,2.664,2.6659,2.6666,2.6691,2.6733,2.6682,2.6683,2.6691,2.6792,2.6796,2.6804,2.6733,2.6735,2.6736,2.679,0,2.6384,2.6441,2.6451,2.6502,2.653,2.6534,2.6563,2.6587,2.6601,2.6629,2.6646,2.6677,2.6668,2.668,2.6705,2.6723,2.6754,2.6719,2.6763,2.6764,2.6755,2.6813,2.6817,2.6866,2.6797,2.6798,2.6799,0,2.6439,2.6466,2.6519,2.655,2.6562,2.6588,2.6621,2.6648,2.6677,2.6686,2.6709,2.6715,2.6753,2.6735,2.679,2.6766,2.6786,2.6798,2.68,2.6803,2.6783,2.6819,2.6882,2.6889,2.681,2.6809,2.6808,0,2.6465,2.6515,2.6554,2.6568,2.6604,2.6623,2.6639,2.6667,2.6687,2.6718,2.6732,2.6766,2.6785,2.6813,2.6829,2.6814,2.6883,2.6866,2.6893,2.6893,2.6905,2.6904,2.6973,2.6919,2.6919,2.6918,2.6918,0,2.6511,2.6543,2.6567,2.659,2.6629,2.6642,2.6681,2.6697,2.6723,2.6752,2.6758,2.6786,2.6805,2.6837,2.685,2.6895,2.6903,2.6913,2.6916,2.6912,2.6911,2.6924,2.6921,2.692,2.692,2.692,2.6919,0,2.6545,2.6561,2.6605,2.6636,2.6645,2.6672,2.6701,2.6726,2.6741,2.6779,2.6789,2.6814,2.6852,2.6871,2.6918,2.6927,2.6978,2.6979,2.6967,2.6968,2.6994,2.6992,2.7073,2.7085,2.7023,2.7024,2.7024,0,2.6572,2.6598,2.6633,2.6653,2.6669,2.6701,2.6722,2.6738,2.6761,2.6798,2.6819,2.6858,2.6889,2.695,2.6974,2.7011,2.7013,2.704,2.7019,2.7015,2.7015,2.7013,2.7016,2.7043,2.7043,2.7044,2.7044,0,2.662,2.6628,2.6657,2.6691,2.6716,2.6744,2.6771,2.6788,2.6809,2.6834,2.6873,2.6897,2.6947,2.6986,2.7026,2.7045,2.7049,2.7051,2.7059,2.7055,2.7048,2.7053,2.6977,2.7048,2.7048,2.7048,2.7047,2.7047,2.6652,2.6676,2.6705,2.6739,2.6761,2.6788,2.6813,2.6833,2.6865,2.6906,2.6914,2.6956,2.6989,2.7043,2.7064,2.7099,2.7093,2.7105,2.7108,2.7111,2.7112,2.7043,2.7106,2.7106,2.7106,2.7106,2.7106,0,2.6701,2.672,2.6751,2.6789,2.6817,2.6818,2.685,2.6874,2.691,2.6939,2.697,2.7017,2.7056,2.7084,2.7125,2.7147,2.715,2.7157,2.7156,2.7161,2.7114,2.7103,2.7154,2.7154,2.7154,2.7154,2.7154,2.7154,2.6729,2.677,2.6782,2.6836,2.6856,2.6896,2.6914,2.694,2.6963,2.7015,2.7047,2.7065,2.7095,2.7138,2.7175,2.7183,2.7198,2.7205,2.7213,2.7169,2.7164,2.7159,2.7148,2.7208,2.7208,2.7256,2.7257,2.7257]}]]